Regional Weather Roundup
Issued by NWS

Home | Current Version | Previous Version | Text Only | Print | Product List | Glossary Off
Versions: 1 2 3 4 5 6 7 8 9 10 11 12 13 14 15 16 17 18 19 20 21 22 23 24 25 26 27

000
ASUS45 KBOU 271410
RWRCO

WEATHER ROUNDUP FOR COLORADO
NATIONAL WEATHER SERVICE DENVER/BOULDER CO
800 AM MDT SUN MAY 27 2018

NOTE: "FAIR" INDICATES FEW OR NO CLOUDS BELOW 12000 FEET WITH NO
SIGNIFICANT WEATHER AND/OR OBSTRUCTIONS TO VISIBILITY.

COZ001>005-013-030-031-271500-
...NORTHWEST COLORADO...

CITY           SKY/WX    TMP DP  RH WIND       PRES   REMARKS
CRAIG          FAIR      55  37  50 CALM      29.99R
HAYDEN         FAIR      57  35  43 NE5       30.01R
MEEKER         FAIR      58  29  33 CALM      29.99R
RANGELY        FAIR      65  24  21 CALM      29.92R
RABBIT EARS PA FAIR      46  27  46 SE5       30.23S
STEAMBOAT SPGS FAIR      51  33  50 E6        30.00F
WALDEN         FAIR      45  27  49 SE6       30.11S
$$

COZ006>008-011-271500-
...WEST CENTRAL VALLEYS...

CITY           SKY/WX    TMP DP  RH WIND       PRES   REMARKS
GRAND JUNCTION FAIR      68  20  16 S9        29.92R
MONTROSE       FAIR      59  19  21 SE9       29.99F
EAGLE          FAIR      54  28  36 E5        30.03F
RIFLE          FAIR      65  20  17 E7        29.94R
DELTA          FAIR      63  22  20 E3        29.96S
NUCLA          FAIR      63  16  16 S10       30.03S
$$

COZ017>023-064>068-271500-
...SOUTHWEST COLORADO...

CITY           SKY/WX    TMP DP  RH WIND       PRES   REMARKS
DURANGO        FAIR      50  18  28 E5        30.07R
CORTEZ         FAIR      53  23  31 CALM      30.03R
PAGOSA SPRINGS FAIR      55  14  19 CALM      30.14R
TELLURIDE      FAIR      51   9  18 CALM      30.14S
WOLF CREEK PAS FAIR      39   9  28 S14G22    30.35S
$$

COZ009-010-012-014-032>034-037-058>063-271500-
...CENTRAL COLORADO...

CITY           SKY/WX    TMP DP  RH WIND       PRES   REMARKS
ASPEN          FAIR      53  29  39 SE5       30.05R
BUENA VISTA    FAIR      56  21  25 CALM      30.10F
COPPER MTN     FAIR      48  18  29 E16       30.32F
BERTHOUD PASS  FAIR      39  30  70 MISG      30.37R
COTTONWOOD PAS FAIR      57  21  24 E5        30.20S
GUNNISON       FAIR      48  29  47 CALM      30.08S
GRANBY         FAIR      44  28  53 NE3       30.13R
KREMMLING      FAIR      50  32  50 CALM      30.10R
LEADVILLE      FAIR      48  24  39 CALM      30.19R
MONARCH PASS   FAIR      46  18  31 MISG      30.42S
SALIDA         FAIR      59  29  31 CALM      30.14S
SUNLIGHT       FAIR      45  14  29 SE5       30.25R
WILKERSON PASS FAIR      48  19  32 SW7       30.33R
$$

COZ069>075-271500-
...SAN LUIS VALLEY/SANGRE DE CRISTO MOUNTAINS...

CITY           SKY/WX    TMP DP  RH WIND       PRES   REMARKS
ALAMOSA        FAIR      57  28  33 S8        30.07R
DEL NORTE      NOT AVBL
LA VETA PASS   FAIR      54  27  35 S12G23    30.33S
SAGUACHE       NOT AVBL
$$

COZ035-036-038>040-271500-
...NORTHERN COLORADO FRONT RANGE...

CITY           SKY/WX    TMP DP  RH WIND       PRES   REMARKS
DENVER INTL AP PTSUNNY   66  31  27 W5        29.91R
AURORA         MOSUNNY   64  32  30 S8        29.92S
FRONT RANGE AP PTSUNNY   72  30  21 VRB7      29.92R
ERIE MUNI ARPT FAIR      60  43  54 W5        29.95R
BOULDER MUN AP FAIR      70  41  35 E8        29.90S
CENTENNIAL     FAIR      67  32  27 CALM      29.94R
BROOMFIELD     MOSUNNY   66  39  37 N6        29.93R
FORT COLLINS   FAIR      66  47  50 N5        29.90R
LONGMONT       FAIR      71  44  37 CALM      29.90F
$$

COZ041-046-047-076>085-087-088-271500-
...PIKES PEAK/PALMER DIVIDE AND SOUTHERN FOOTHILLS...

CITY           SKY/WX    TMP DP  RH WIND       PRES   REMARKS
COLO. SPRINGS  FAIR      67  30  25 E9        29.99R
A. F. ACADEMY  FAIR      60  30  32 NW3       29.99S
SCHRIEVER AFB  NOT AVBL
CHEYENNE MTN   FAIR      63  30  28 CALM      29.97S
ELLICOTT         N/A    N/A N/A N/A SE9       29.97S
FALCON         FAIR      60  31  33 NE3       30.04R
FORT CARSON    FAIR      63  33  32 N8        29.95R
LIMON          FAIR      65  58  78 S13       29.96R
MONUMENT HILL  FAIR      64  28  25 S6        30.04R
CANON CITY     SUNNY     68  27  21 CALM      29.92R
WALSENBURG     FAIR      64  28  25 CALM      29.96R
TRINIDAD       FAIR      63  46  54 NW3       29.95F
$$

COZ042>045-048>051-090-091-271500-
...NORTHEAST COLORADO...

CITY           SKY/WX    TMP DP  RH WIND       PRES   REMARKS
GREELEY ARPT   FAIR      61  46  57 NE6       29.89R
AKRON          FAIR      68  58  70 S13       29.88R
BURLINGTON     FAIR      70  62  76 S18G28    29.91F
WRAY           FAIR      72  59  64 S22G36    29.86R
YUMA           FAIR      68  45  42 S15       29.87R
STERLING       FAIR      70  61  73 S6        29.84S
HOLYOKE        FAIR      73  59  60 S15       29.86R
FORT MORGAN    FAIR      70  47  44 SW8       29.89R
$$

COZ086-089-092>099-271500-
...SOUTHEAST COLORADO...

CITY           SKY/WX    TMP DP  RH WIND       PRES   REMARKS
PUEBLO         FAIR      64  35  34 S7        29.87S
LA JUNTA       FAIR      77  58  51 S10       29.87R
LAMAR          FAIR      74  61  63 CALM      29.88R
SPRINGFIELD      N/A     71  62  73 S15       29.92S
$$




USA.gov is the U.S. government's official web portal to all federal, state and local government web resources and services.